Simultaneous Nadir Overpasses (SNOs) Predictions

Prediction of SNOs between METOP-B and TERRA Satellite Orbit:

Table of predicted SNOs for the next 14.0 days since TLE Epoch: 3/30/2024
Index Date (METOP-B) Time (METOP-B) Lat,Lon (METOP-B) SZA (METOP-B ) Date (TERRA) Time (TERRA) Lat,Lon (TERRA) SZA (TERRA ) Distance(km) Time Diff (sec)
1 04/01/2024 01:08:37 80.29,-174.10 76.30 04/01/2024 01:09:19 80.29,-174.06 76.32 0.93 42
2 04/01/2024 01:59:15 -80.37, -5.83 103.58 04/01/2024 01:58:38 -80.38, -5.66 103.58 3.19 37
3 04/03/2024 16:29:34 -80.32, 135.97 104.66 04/03/2024 16:29:46 -80.32, 136.02 104.65 0.85 12
4 04/03/2024 17:20:10 80.44, -55.25 75.54 04/03/2024 17:19:04 80.43, -55.29 75.52 0.89 66
5 04/06/2024 06:59:54 -80.23, -82.62 105.78 04/06/2024 07:00:54 -80.23, -82.56 105.76 1.11 60
6 04/06/2024 07:50:29 80.38, 86.44 74.47 04/06/2024 07:50:11 80.38, 86.42 74.46 0.42 18
7 04/08/2024 22:20:50 80.25,-132.58 73.30 04/08/2024 22:21:19 80.26,-132.44 73.32 2.79 29
8 04/08/2024 23:11:25 -80.42, 36.67 106.44 04/08/2024 23:10:36 -80.41, 36.55 106.47 2.41 49



Historial Predications of SNOs between METOP-B and TERRA
